SL-16 DEB, 39872

Orbit data source: Space-Track

SL-16 DEB, 39872 is space debris in LEO originally from a launch on Fri, 26 Mar 1993 UTC launched from the Tyuratam Missile And Space Complex (TTMTR). Debris objects in space refer to the collection of defunct objects orbiting the Earth. Examples of debris include non-operational satellites, rocket bodies, and fragments generated from explosions, collisions, or faulty payload assembly.

Loading next visibility...
Identifier
39872, 1993-016AW
Orbit
LEO
Country
Flag of CISCIS
Related business
Manufacturer
Unknown
Mission
Spacecraft
Bus & Motor
Unknown
Mass
Unknown
Launch date (UTC)
1993-03-26 (33 years ago)
Launch vehicle
Unknown
Launch site
Tyuratam Missile And Space Complex (TTMTR)
Object type
Payload
Rocket body
Debris
Shape & HBR
Unknown shape, 0.1 m
Radar Cross Section
Small (<0.1 m²)

Expand to show TLE details & history
Last TLE update: 16 hours ago

TLE from 16 hours ago
0 SL-16 DEB
1 39872U 93016AW  26036.29455068  .00002162  00000-0  13653-2 0  9995
2 39872  70.9822 259.8101 0135354 272.7229 208.9653 14.00825233594376
Epoch: 2026-02-05T07:04Z
TLE epoch observation values (Epoch: 2026-02-05T07:04:09.178Z)
Latitude
54.2857°
Longitude
169.83785°
Altitude
985.737 km
Speed
7.32 km/s
True Right ascension
03h 25m 17s
True Declination
54° 07' 39"
Sunlit
Object was in daylight at epoch
Visualization orbit readout
Latitude
Unknown
Longitude
Unknown
Altitude
Unknown
Speed
Unknown
Apparent Right ascension
Unknown
Apparent Declination
Unknown
Sunlit
N/A
Visualization observer readout
Local Sidereal Time
00:59:21
Azimuth
Unknown
Elevation
Unknown
Doppler factor
Unknown
Orbital elements
Apogee altitude
987.241 km
Perigee altitude
790.517 km
Semi-major axis
7,267.016 km
Eccentricity
0.01354
Inclination
70.9822°
RAAN
259.8101°
Arg. of periapsis
272.7229°
True anomaly
208.22514°
Mean anomaly
208.9653°
Eccentric anomaly
208.59413°
Mean motion
3.50356 °/min
Orbital period
102.75 mins
BSTAR
0.0013653
Loading maneuver chart data...
Computing Atmospheric mass density...
Loading historical data...
Loading historical data...
Loading historical data...
Loading historical data...
Loading historical data...
Loading historical data...
Loading historical data...

Documentation

Showing up to 5 results
|